TimeCST,TemperatureF,Dew PointF,Humidity,Sea Level PressureIn,VisibilityMPH,Wind Direction,Wind SpeedMPH,Gust SpeedMPH,PrecipitationIn,Events,Conditions,WindDirDegrees,DateUTC
12:54 AM,60.1,48.0,64,29.96,10.0,South,17.3,25.3,N/A,,Clear,180,2012-11-11 06:54:00
1:54 AM,60.1,48.9,67,29.96,10.0,South,18.4,-,N/A,,Clear,180,2012-11-11 07:54:00
2:54 AM,57.9,50.0,75,29.97,10.0,South,17.3,-,N/A,,Clear,180,2012-11-11 08:54:00
3:54 AM,57.9,50.0,75,29.98,10.0,South,15.0,-,N/A,,Clear,170,2012-11-11 09:54:00
4:54 AM,55.9,48.9,77,29.99,10.0,South,12.7,-,N/A,,Clear,170,2012-11-11 10:54:00
5:54 AM,55.9,48.9,77,29.99,10.0,South,17.3,-,N/A,,Clear,170,2012-11-11 11:54:00
6:54 AM,55.9,48.9,77,29.99,10.0,South,17.3,25.3,N/A,,Clear,170,2012-11-11 12:54:00
8:54 AM,61.0,51.1,70,29.96,10.0,South,23.0,33.4,N/A,,Scattered Clouds,180,2012-11-11 14:54:00
9:54 AM,64.0,53.1,67,29.95,10.0,South,28.8,35.7,N/A,,Mostly Cloudy,180,2012-11-11 15:54:00
12:54 PM,66.9,54.0,63,29.84,10.0,South,27.6,42.6,N/A,,Scattered Clouds,180,2012-11-11 18:54:00
1:54 PM,68.0,55.9,65,29.82,10.0,South,33.4,44.9,N/A,,Clear,180,2012-11-11 19:54:00
2:54 PM,66.0,55.0,68,29.81,10.0,South,23.0,35.7,N/A,,Overcast,170,2012-11-11 20:54:00
3:54 PM,63.0,57.0,81,29.83,6.0,South,24.2,38.0,0.00,Rain,Light Rain,170,2012-11-11 21:54:00
4:54 PM,62.1,57.9,86,29.85,10.0,South,15.0,-,0.02,Rain,Light Rain,190,2012-11-11 22:54:00
5:23 PM,57.2,55.4,94,29.90,5.0,West,13.8,21.9,0.06,Rain,Heavy Rain,280,2012-11-11 23:23:00
5:27 PM,55.4,55.4,100,29.91,4.0,WNW,18.4,23.0,0.07,Rain,Heavy Rain,300,2012-11-11 23:27:00
5:54 PM,53.1,53.1,100,29.94,5.0,WNW,12.7,18.4,0.17,Rain,Rain,300,2012-11-11 23:54:00
6:22 PM,53.6,53.6,100,29.93,6.0,WNW,5.8,-,0.03,Rain,Light Rain,300,2012-11-12 00:22:00
6:54 PM,53.1,53.1,100,29.93,6.0,NW,5.8,-,0.07,Rain,Light Rain,320,2012-11-12 00:54:00
7:05 PM,53.6,53.6,100,29.94,5.0,Calm,Calm,-,0.01,Rain,Light Rain,0,2012-11-12 01:05:00
7:15 PM,53.6,53.6,100,29.94,6.0,Calm,Calm,-,0.02,Rain,Light Rain,0,2012-11-12 01:15:00
7:30 PM,53.6,53.6,100,29.94,7.0,Calm,Calm,-,0.03,Rain,Light Rain,0,2012-11-12 01:30:00
7:39 PM,53.6,53.6,100,29.95,5.0,SSW,6.9,-,0.04,Rain,Rain,210,2012-11-12 01:39:00
7:54 PM,53.1,53.1,100,29.93,5.0,WSW,3.5,-,0.06,Rain,Light Rain,250,2012-11-12 01:54:00
8:14 PM,51.8,51.8,100,29.94,10.0,WSW,4.6,-,0.01,Rain,Light Rain,240,2012-11-12 02:14:00
8:49 PM,51.8,51.8,100,29.97,5.0,WSW,15.0,21.9,0.09,Rain,Rain,240,2012-11-12 02:49:00
8:54 PM,52.0,52.0,100,29.97,7.0,WSW,16.1,21.9,0.09,Rain,Light Rain,240,2012-11-12 02:54:00
9:05 PM,51.8,51.8,100,29.97,9.0,WSW,11.5,21.9,0.02,Rain,Light Rain,250,2012-11-12 03:05:00
9:15 PM,51.8,50.0,94,29.97,10.0,West,11.5,18.4,0.02,Rain,Light Rain,260,2012-11-12 03:15:00
9:45 PM,50.0,50.0,100,29.99,9.0,West,11.5,-,0.06,Rain,Light Rain,270,2012-11-12 03:45:00
9:54 PM,50.0,50.0,100,30.00,10.0,West,11.5,20.7,0.06,Rain,Light Rain,270,2012-11-12 03:54:00
10:54 PM,42.1,41.0,96,30.01,7.0,WNW,16.1,-,0.06,Rain,Rain,300,2012-11-12 04:54:00
11:46 PM,37.4,37.4,100,30.03,5.0,WNW,15.0,21.9,0.17,Rain,Heavy Rain,300,2012-11-12 05:46:00
11:54 PM,37.9,37.0,97,30.03,6.0,WNW,12.7,21.9,0.19,Rain,Rain,300,2012-11-12 05:54:00